Location: Izdebno
(52.6670°N, 16.2170°E)
Time: 21:59:15
(UTC+02:00)

S-56A Canister/Altair - Pass Details

Date: 25 April 2024
Orbit: 638 x 2488 km, 38.9° (Epoch: 22 May)

Event Time Altitude Azimuth Distance (km) Brightness Sun altitude
Rises 18:12:52 0° 240° (WSW) 3,113 11.7 16.8°
Reaches altitude 10° 18:15:27 10° 224° (SW) 2,336 10.8 16.4°
Maximum altitude 18:19:37 23° 174° (S) 1,882 9.6 15.7°
Drops below altitude 10° 18:24:55 10° 126° (SE) 3,060 10.2 14.9°
Sets 18:28:55 0° 113° (ESE) 4,374 10.8 14.3°
